Regional Weather Roundup
Issued by NWS Nashville, TN

Home | Current Version | Previous Version | Text Only | Print | Product List | Glossary On
Versions: 1 2 3 4 5 6 7 8 9 10 11 12 13 14 15 16 17 18 19 20 21 22 23 24 25 26 27 28 29 30 31 32 33 34 35 36 37 38 39 40 41 42 43 44 45 46 47 48 49 50
000
ASUS44 KOHX 030110
RWROHX
MIDDLE TENNESSEE HOURLY WEATHER ROUNDUP
NATIONAL WEATHER SERVICE NASHVILLE TN
800 PM CDT MON MAY 02 2016

NOTE: "FAIR" INDICATES FEW OR NO CLOUDS BELOW 12,000 FEET WITH
NO SIGNIFICANT WEATHER AND/OR OBSTRUCTIONS TO VISIBILITY.

* THESE REPORTS ARE NOT UNDER NWS QUALITY CONTROL AND MAY NOT
  REPORT WEATHER SUCH AS PRECIPITATION AND FOG.


TNZ005>011-023>034-057-059-062>066-078-080-030200
...NORTHERN MIDDLE TENNESSEE...

CITY           SKY/WX    TMP DP  RH WIND       PRES   REMARKS
CLARKSVILLE    CLOUDY    59  56  89 CALM      29.95R
CROSSVILLE     CLOUDY    62  59  90 CALM      29.96R
NASHVILLE      LGT RAIN  60  56  86 NW8       29.96R
SMYRNA         CLOUDY    61  59  93 N9        29.95R
SPARTA         CLOUDY    64  63  94 CALM      29.93S
$$
TNZ056-058-060-061-075>077-079-093>097-030200
...SOUTHERN MIDDLE TENNESSEE...

CITY           SKY/WX    TMP DP  RH WIND       PRES   REMARKS
COLUMBIA       CLOUDY   N/A N/A N/A VRB6      29.92R
FAYETTEVILLE   CLOUDY    64  63  94 CALM      29.93S
MCMINNVILLE    CLOUDY    63  63 100 CALM      29.93F
SHELBYVILLE    CLOUDY    64  63  94 CALM      29.93F
TULLAHOMA      CLOUDY    63  63 100 CALM      29.94F
WINCHESTER     CLOUDY    64  61  88 S3        29.93F
$$


...KEY TO REMARKS...
VSB - VISIBILITY IN MILES
WCI - WIND CHILL INDEX
HX  - HEAT INDEX




USA.gov is the U.S. government's official web portal to all federal, state and local government web resources and services.